Time,TemperatureF,DewpointF,PressureIn,WindDirection,WindDirectionDegrees,WindSpeedMPH,WindSpeedGustMPH,Humidity,HourlyPrecipIn,Conditions,Clouds,dailyrainin,SoftwareType,DateUTC
2013-01-07 00:00:00,33.3,20.5,29.15,SE,135,0.0,0.0,59,0.00,,SCT,0.00,WeatherDisplay:10.37,2013-01-07 05:00:00,
2013-01-07 00:01:00,33.3,20.5,29.18,SE,135,0.0,0.0,59,0.00,,SCT,0.00,WeatherDisplay:10.37,2013-01-07 05:01:00,
2013-01-07 00:06:00,33.3,20.5,29.18,SE,135,0.0,0.0,59,0.00,,SCT,0.00,WeatherDisplay:10.37,2013-01-07 05:06:00,
2013-01-07 00:11:00,33.3,20.9,29.18,SE,135,0.0,0.0,60,0.00,,SCT,0.00,WeatherDisplay:10.37,2013-01-07 05:11:00,
2013-01-07 00:16:00,33.1,20.7,29.18,SE,135,0.0,0.0,60,0.00,,SCT,0.00,WeatherDisplay:10.37,2013-01-07 05:16:00,
2013-01-07 00:21:00,32.9,20.5,29.18,SE,135,0.0,0.0,60,0.00,,SCT,0.00,WeatherDisplay:10.37,2013-01-07 05:21:00,
2013-01-07 00:26:00,32.7,20.4,29.18,SE,135,0.0,0.0,60,0.00,,SCT,0.00,WeatherDisplay:10.37,2013-01-07 05:26:00,
2013-01-07 00:31:00,32.5,20.2,29.18,SE,135,0.0,0.0,60,0.00,,SCT,0.00,WeatherDisplay:10.37,2013-01-07 05:31:00,
2013-01-07 00:36:00,32.2,20.2,29.18,SE,135,0.0,0.0,61,0.00,,SCT,0.00,WeatherDisplay:10.37,2013-01-07 05:36:00,
2013-01-07 00:41:00,32.2,20.2,29.18,SE,135,0.0,0.0,61,0.00,,SCT,0.00,WeatherDisplay:10.37,2013-01-07 05:41:00,
2013-01-07 00:46:00,31.8,19.9,29.15,SE,135,0.0,0.0,61,0.00,,SCT,0.00,WeatherDisplay:10.37,2013-01-07 05:46:00,
2013-01-07 00:51:00,31.6,19.7,29.15,SE,135,0.0,0.0,61,0.00,,SCT,0.00,WeatherDisplay:10.37,2013-01-07 05:51:00,
2013-01-07 00:56:00,31.5,19.9,29.15,ESE,112,0.0,0.0,62,0.00,,SCT,0.00,WeatherDisplay:10.37,2013-01-07 05:56:00,
2013-01-07 01:01:00,31.3,19.8,29.15,ESE,112,0.0,0.0,62,0.00,,SCT,0.00,WeatherDisplay:10.37,2013-01-07 06:01:00,
2013-01-07 01:06:00,31.3,20.1,29.15,ENE,68,0.0,0.0,63,0.00,,SCT,0.00,WeatherDisplay:10.37,2013-01-07 06:06:00,
2013-01-07 01:11:00,31.1,19.6,29.15,ENE,68,0.0,0.0,62,0.00,,SCT,0.00,WeatherDisplay:10.37,2013-01-07 06:11:00,
2013-01-07 01:16:00,30.9,19.8,29.15,ENE,68,0.0,0.0,63,0.00,,SCT,0.00,WeatherDisplay:10.37,2013-01-07 06:16:00,
2013-01-07 01:22:00,30.7,19.2,29.15,ENE,68,1.6,0.0,62,0.00,,SCT,0.00,WeatherDisplay:10.37,2013-01-07 06:22:00,
2013-01-07 01:27:00,30.6,19.1,29.15,ENE,68,0.0,0.0,62,0.00,,SCT,0.00,WeatherDisplay:10.37,2013-01-07 06:27:00,
2013-01-07 01:32:00,30.4,19.3,29.15,ENE,68,0.0,0.0,63,0.00,,SCT,0.00,WeatherDisplay:10.37,2013-01-07 06:32:00,
2013-01-07 01:37:00,30.2,19.1,29.15,NE,45,0.0,0.0,63,0.00,,SCT,0.00,WeatherDisplay:10.37,2013-01-07 06:37:00,
2013-01-07 01:42:00,30.0,19.3,29.15,NE,45,0.0,0.0,64,0.00,,SCT,0.00,WeatherDisplay:10.37,2013-01-07 06:42:00,
2013-01-07 01:47:00,30.0,20.0,29.18,East,90,1.4,1.4,66,0.00,,SCT,0.00,WeatherDisplay:10.37,2013-01-07 06:47:00,
2013-01-07 01:52:00,29.8,19.9,29.18,East,90,1.4,1.4,66,0.00,,SCT,0.00,WeatherDisplay:10.37,2013-01-07 06:52:00,
2013-01-07 01:57:00,30.0,20.0,29.18,East,90,1.1,0.0,66,0.00,,SCT,0.00,WeatherDisplay:10.37,2013-01-07 06:57:00,
2013-01-07 02:02:00,30.0,20.0,29.15,East,90,0.0,0.0,66,0.00,,SCT,0.00,WeatherDisplay:10.37,2013-01-07 07:02:00,
2013-01-07 02:07:00,29.8,19.9,29.15,East,90,0.0,0.0,66,0.00,,SCT,0.00,WeatherDisplay:10.37,2013-01-07 07:07:00,
2013-01-07 02:12:00,29.7,19.3,29.15,North,0,0.0,0.0,65,0.00,,SCT,0.00,WeatherDisplay:10.37,2013-01-07 07:12:00,
2013-01-07 02:17:00,29.5,19.2,29.15,North,0,0.0,0.0,65,0.00,,SCT,0.00,WeatherDisplay:10.37,2013-01-07 07:17:00,
2013-01-07 02:22:00,29.5,19.5,29.15,North,0,0.0,0.0,66,0.00,,SCT,0.00,WeatherDisplay:10.37,2013-01-07 07:22:00,
2013-01-07 02:27:00,29.5,19.9,29.15,North,0,0.0,0.0,67,0.00,,SCT,0.00,WeatherDisplay:10.37,2013-01-07 07:27:00,
2013-01-07 02:32:00,29.3,19.7,29.18,North,0,0.0,0.0,67,0.00,,SCT,0.00,WeatherDisplay:10.37,2013-01-07 07:32:00,
2013-01-07 02:37:00,29.3,19.7,29.18,North,0,0.0,0.0,67,0.00,,SCT,0.00,WeatherDisplay:10.37,2013-01-07 07:37:00,
2013-01-07 02:42:00,29.1,19.2,29.18,West,270,2.0,0.0,66,0.00,,SCT,0.00,WeatherDisplay:10.37,2013-01-07 07:42:00,
2013-01-07 02:47:00,29.1,19.2,29.18,WSW,248,0.0,0.0,66,0.00,,SCT,0.00,WeatherDisplay:10.37,2013-01-07 07:47:00,
2013-01-07 02:52:00,29.1,19.5,29.18,SSE,158,0.0,0.0,67,0.00,,SCT,0.00,WeatherDisplay:10.37,2013-01-07 07:52:00,
2013-01-07 02:57:00,29.1,19.5,29.18,SSW,202,1.1,1.1,67,0.00,,SCT,0.00,WeatherDisplay:10.37,2013-01-07 07:57:00,
2013-01-07 03:02:00,29.1,19.5,29.18,NE,45,2.3,2.3,67,0.00,,SCT,0.00,WeatherDisplay:10.37,2013-01-07 08:02:00,
2013-01-07 03:07:00,29.1,19.9,29.18,NE,45,0.0,0.0,68,0.00,,SCT,0.00,WeatherDisplay:10.37,2013-01-07 08:07:00,
2013-01-07 03:12:00,29.1,19.5,29.18,West,270,0.0,0.0,67,0.00,,SCT,0.00,WeatherDisplay:10.37,2013-01-07 08:12:00,
2013-01-07 03:17:00,28.9,19.7,29.20,West,270,0.0,0.0,68,0.00,,SCT,0.00,WeatherDisplay:10.37,2013-01-07 08:17:00,
2013-01-07 03:22:00,28.9,19.3,29.20,West,270,2.3,2.3,67,0.00,,SCT,0.00,WeatherDisplay:10.37,2013-01-07 08:22:00,
2013-01-07 03:27:00,28.9,19.7,29.20,NE,45,2.0,2.0,68,0.00,,SCT,0.00,WeatherDisplay:10.37,2013-01-07 08:27:00,
2013-01-07 03:32:00,28.9,19.7,29.20,ENE,68,0.0,0.0,68,0.00,,SCT,0.00,WeatherDisplay:10.37,2013-01-07 08:32:00,
2013-01-07 03:37:00,28.8,19.5,29.20,SW,225,0.0,0.0,68,0.00,,SCT,0.00,WeatherDisplay:10.37,2013-01-07 08:37:00,
2013-01-07 03:42:00,28.8,19.9,29.20,SW,225,0.0,0.0,69,0.00,,SCT,0.00,WeatherDisplay:10.37,2013-01-07 08:42:00,
2013-01-07 03:47:00,28.9,20.0,29.24,SW,225,0.0,0.0,69,0.00,,SCT,0.00,WeatherDisplay:10.37,2013-01-07 08:47:00,
2013-01-07 03:52:00,28.9,20.4,29.24,East,90,2.0,2.0,70,0.00,,SCT,0.00,WeatherDisplay:10.37,2013-01-07 08:52:00,
2013-01-07 03:57:00,28.9,20.4,29.24,East,90,0.0,0.0,70,0.00,,SCT,0.00,WeatherDisplay:10.37,2013-01-07 08:57:00,
2013-01-07 04:02:00,28.8,20.2,29.20,South,180,0.0,0.0,70,0.00,,SCT,0.00,WeatherDisplay:10.37,2013-01-07 09:02:00,
2013-01-07 04:07:00,28.8,20.2,29.20,South,180,0.0,0.0,70,0.00,,SCT,0.00,WeatherDisplay:10.37,2013-01-07 09:07:00,
2013-01-07 04:12:00,28.8,20.2,29.20,South,180,0.0,0.0,70,0.00,,SCT,0.00,WeatherDisplay:10.37,2013-01-07 09:12:00,
2013-01-07 04:17:00,28.8,20.2,29.20,South,180,0.0,0.0,70,0.00,,SCT,0.00,WeatherDisplay:10.37,2013-01-07 09:17:00,
2013-01-07 04:22:00,28.8,20.2,29.20,South,180,0.0,0.0,70,0.00,,SCT,0.00,WeatherDisplay:10.37,2013-01-07 09:22:00,
2013-01-07 04:27:00,28.6,20.0,29.20,South,180,0.0,0.0,70,0.00,,SCT,0.00,WeatherDisplay:10.37,2013-01-07 09:27:00,
2013-01-07 04:32:00,28.6,20.0,29.20,South,180,2.3,2.3,70,0.00,,SCT,0.00,WeatherDisplay:10.37,2013-01-07 09:32:00,
2013-01-07 04:37:00,28.8,20.2,29.20,South,180,1.6,1.6,70,0.00,,SCT,0.00,WeatherDisplay:10.37,2013-01-07 09:37:00,
2013-01-07 04:42:00,28.6,20.0,29.20,South,180,1.1,1.1,70,0.00,,SCT,0.00,WeatherDisplay:10.37,2013-01-07 09:42:00,
2013-01-07 04:47:00,28.6,20.0,29.20,South,180,1.4,1.4,70,0.00,,SCT,0.00,WeatherDisplay:10.37,2013-01-07 09:47:00,
2013-01-07 04:52:00,28.8,20.5,29.20,South,180,0.0,0.0,71,0.00,,SCT,0.00,WeatherDisplay:10.37,2013-01-07 09:52:00,
2013-01-07 04:57:00,28.8,20.5,29.20,South,180,0.0,0.0,71,0.00,,SCT,0.00,WeatherDisplay:10.37,2013-01-07 09:57:00,
2013-01-07 05:02:00,28.8,20.5,29.20,South,180,0.0,0.0,71,0.00,,SCT,0.00,WeatherDisplay:10.37,2013-01-07 10:02:00,
2013-01-07 05:07:00,28.8,20.5,29.20,South,180,0.0,0.0,71,0.00,,SCT,0.00,WeatherDisplay:10.37,2013-01-07 10:07:00,
2013-01-07 05:12:00,28.6,20.4,29.20,South,180,0.0,0.0,71,0.00,,SCT,0.00,WeatherDisplay:10.37,2013-01-07 10:12:00,
2013-01-07 05:17:00,28.6,20.7,29.20,South,180,0.0,0.0,72,0.00,,SCT,0.00,WeatherDisplay:10.37,2013-01-07 10:17:00,
2013-01-07 05:22:00,28.8,20.9,29.20,South,180,1.1,1.4,72,0.00,,SCT,0.00,WeatherDisplay:10.37,2013-01-07 10:22:00,
2013-01-07 05:27:00,28.6,20.7,29.20,South,180,0.0,0.0,72,0.00,,SCT,0.00,WeatherDisplay:10.37,2013-01-07 10:27:00,
2013-01-07 05:32:00,28.6,20.7,29.20,South,180,0.0,0.0,72,0.00,,SCT,0.00,WeatherDisplay:10.37,2013-01-07 10:32:00,
2013-01-07 05:37:00,28.4,20.5,29.20,South,180,0.0,0.0,72,0.00,,SCT,0.00,WeatherDisplay:10.37,2013-01-07 10:37:00,
2013-01-07 05:42:00,28.2,20.3,29.20,South,180,0.0,0.0,72,0.00,,SCT,0.00,WeatherDisplay:10.37,2013-01-07 10:42:00,
2013-01-07 05:47:00,28.0,19.8,29.24,South,180,2.3,2.3,71,0.00,,SCT,0.00,WeatherDisplay:10.37,2013-01-07 10:47:00,
2013-01-07 05:52:00,28.0,19.8,29.24,South,180,1.1,1.1,71,0.00,,SCT,0.00,WeatherDisplay:10.37,2013-01-07 10:52:00,
2013-01-07 05:57:00,27.9,20.0,29.24,South,180,0.0,0.0,72,0.00,,SCT,0.00,WeatherDisplay:10.37,2013-01-07 10:57:00,
2013-01-07 06:02:00,27.9,20.0,29.24,South,180,0.0,0.0,72,0.00,,SCT,0.00,WeatherDisplay:10.37,2013-01-07 11:02:00,
2013-01-07 06:07:00,27.9,20.0,29.24,South,180,1.1,1.1,72,0.00,,SCT,0.00,WeatherDisplay:10.37,2013-01-07 11:07:00,
2013-01-07 06:12:00,27.9,20.0,29.24,South,180,0.0,0.0,72,0.00,,SCT,0.00,WeatherDisplay:10.37,2013-01-07 11:12:00,
2013-01-07 06:17:00,27.9,20.6,29.24,South,180,0.0,0.0,74,0.00,,SCT,0.00,WeatherDisplay:10.37,2013-01-07 11:17:00,
2013-01-07 06:22:00,28.0,20.8,29.24,South,180,1.4,1.4,74,0.00,,SCT,0.00,WeatherDisplay:10.37,2013-01-07 11:22:00,
2013-01-07 06:27:00,27.9,20.3,29.24,South,180,0.0,0.0,73,0.00,,SCT,0.00,WeatherDisplay:10.37,2013-01-07 11:27:00,
2013-01-07 06:32:00,27.7,20.5,29.26,South,180,1.1,0.0,74,0.00,,SCT,0.00,WeatherDisplay:10.37,2013-01-07 11:32:00,
2013-01-07 06:37:00,27.7,20.5,29.26,South,180,0.0,0.0,74,0.00,,SCT,0.00,WeatherDisplay:10.37,2013-01-07 11:37:00,
2013-01-07 06:42:00,27.5,20.3,29.26,South,180,0.0,0.0,74,0.00,,SCT,0.00,WeatherDisplay:10.37,2013-01-07 11:42:00,
2013-01-07 06:47:00,27.5,20.3,29.29,South,180,0.0,0.0,74,0.00,,SCT,0.00,WeatherDisplay:10.37,2013-01-07 11:47:00,
2013-01-07 06:52:00,27.5,20.3,29.29,South,180,0.0,0.0,74,0.00,,SCT,0.00,WeatherDisplay:10.37,2013-01-07 11:52:00,
2013-01-07 06:57:00,27.3,20.1,29.29,South,180,0.0,0.0,74,0.00,,SCT,0.00,WeatherDisplay:10.37,2013-01-07 11:57:00,
2013-01-07 07:02:00,27.1,19.6,29.26,South,180,0.0,0.0,73,0.00,,SCT,0.00,WeatherDisplay:10.37,2013-01-07 12:02:00,
2013-01-07 07:07:00,27.0,19.5,29.26,South,180,0.0,0.0,73,0.00,,SCT,0.00,WeatherDisplay:10.37,2013-01-07 12:07:00,
2013-01-07 07:12:00,27.0,19.5,29.26,South,180,1.1,0.0,73,0.00,,SCT,0.00,WeatherDisplay:10.37,2013-01-07 12:12:00,
2013-01-07 07:17:00,27.0,19.5,29.26,South,180,0.0,0.0,73,0.00,,SCT,0.00,WeatherDisplay:10.37,2013-01-07 12:17:00,
2013-01-07 07:22:00,27.0,19.5,29.26,South,180,0.0,0.0,73,0.00,,SCT,0.00,WeatherDisplay:10.37,2013-01-07 12:22:00,
2013-01-07 07:27:00,27.0,19.5,29.26,South,180,1.1,1.4,73,0.00,,SCT,0.00,WeatherDisplay:10.37,2013-01-07 12:27:00,
2013-01-07 07:32:00,26.8,19.3,29.26,South,180,0.0,0.0,73,0.00,,SCT,0.00,WeatherDisplay:10.37,2013-01-07 12:32:00,
2013-01-07 07:37:00,26.8,19.3,29.26,South,180,0.0,0.0,73,0.00,,SCT,0.00,WeatherDisplay:10.37,2013-01-07 12:37:00,
2013-01-07 07:42:00,26.6,19.1,29.26,South,180,0.0,0.0,73,0.00,,SCT,0.00,WeatherDisplay:10.37,2013-01-07 12:42:00,
2013-01-07 07:47:00,26.6,19.1,29.26,South,180,0.0,0.0,73,0.00,,SCT,0.00,WeatherDisplay:10.37,2013-01-07 12:47:00,
2013-01-07 07:52:00,26.6,19.1,29.26,South,180,0.0,0.0,73,0.00,,SCT,0.00,WeatherDisplay:10.37,2013-01-07 12:52:00,
2013-01-07 07:57:00,26.6,19.4,29.26,South,180,0.0,0.0,74,0.00,,SCT,0.00,WeatherDisplay:10.37,2013-01-07 12:57:00,
2013-01-07 08:02:00,26.6,19.4,29.26,South,180,0.0,0.0,74,0.00,,SCT,0.00,WeatherDisplay:10.37,2013-01-07 13:02:00,
2013-01-07 08:07:00,26.6,19.4,29.26,South,180,0.0,0.0,74,0.00,,SCT,0.00,WeatherDisplay:10.37,2013-01-07 13:07:00,
2013-01-07 08:12:00,26.6,19.4,29.26,South,180,0.0,0.0,74,0.00,,SCT,0.00,WeatherDisplay:10.37,2013-01-07 13:12:00,
2013-01-07 08:17:00,27.0,19.8,29.26,South,180,0.0,0.0,74,0.00,,SCT,0.00,WeatherDisplay:10.37,2013-01-07 13:17:00,
2013-01-07 08:22:00,27.1,19.9,29.26,South,180,0.0,0.0,74,0.00,,SCT,0.00,WeatherDisplay:10.37,2013-01-07 13:22:00,
2013-01-07 08:27:00,27.1,19.9,29.26,South,180,0.0,0.0,74,0.00,,SCT,0.00,WeatherDisplay:10.37,2013-01-07 13:27:00,
2013-01-07 08:32:00,27.5,20.6,29.29,South,180,0.0,0.0,75,0.00,,SCT,0.00,WeatherDisplay:10.37,2013-01-07 13:32:00,
2013-01-07 08:37:00,27.9,21.0,29.29,South,180,0.0,0.0,75,0.00,,SCT,0.00,WeatherDisplay:10.37,2013-01-07 13:37:00,
2013-01-07 08:42:00,28.2,21.3,29.29,South,180,0.0,0.0,75,0.00,,SCT,0.00,WeatherDisplay:10.37,2013-01-07 13:42:00,
2013-01-07 08:47:00,28.8,21.8,29.29,South,180,0.0,0.0,75,0.00,,SCT,0.00,WeatherDisplay:10.37,2013-01-07 13:47:00,
2013-01-07 08:52:00,29.5,22.8,29.29,South,180,0.0,0.0,76,0.00,,SCT,0.00,WeatherDisplay:10.37,2013-01-07 13:52:00,
2013-01-07 08:57:00,30.2,23.5,29.29,South,180,0.0,0.0,76,0.00,,SCT,0.00,WeatherDisplay:10.37,2013-01-07 13:57:00,
2013-01-07 09:02:00,30.7,24.1,29.32,South,180,0.0,0.0,76,0.00,,SCT,0.00,WeatherDisplay:10.37,2013-01-07 14:02:00,
2013-01-07 09:07:00,31.3,24.6,29.32,South,180,0.0,0.0,76,0.00,,SCT,0.00,WeatherDisplay:10.37,2013-01-07 14:07:00,
2013-01-07 09:12:00,31.8,25.1,29.32,South,180,0.0,0.0,76,0.00,,SCT,0.00,WeatherDisplay:10.37,2013-01-07 14:12:00,
2013-01-07 09:17:00,32.5,25.8,29.32,South,180,0.0,0.0,76,0.00,,SCT,0.00,WeatherDisplay:10.37,2013-01-07 14:17:00,
2013-01-07 09:22:00,33.4,26.7,29.32,West,270,0.0,0.0,76,0.00,,SCT,0.00,WeatherDisplay:10.37,2013-01-07 14:22:00,
2013-01-07 09:27:00,34.5,28.1,29.32,West,270,0.0,0.0,77,0.00,,SCT,0.00,WeatherDisplay:10.37,2013-01-07 14:27:00,
2013-01-07 09:32:00,35.8,29.3,29.32,SW,225,0.0,0.0,77,0.00,,SCT,0.00,WeatherDisplay:10.37,2013-01-07 14:32:00,
2013-01-07 09:37:00,36.5,30.0,29.32,South,180,0.0,0.0,77,0.00,,SCT,0.00,WeatherDisplay:10.37,2013-01-07 14:37:00,
2013-01-07 09:42:00,37.4,30.5,29.32,SW,225,0.0,0.0,76,0.00,,SCT,0.00,WeatherDisplay:10.37,2013-01-07 14:42:00,
2013-01-07 09:47:00,38.1,31.2,29.32,WSW,248,1.4,1.4,76,0.00,,SCT,0.00,WeatherDisplay:10.37,2013-01-07 14:47:00,
2013-01-07 09:52:00,39.4,32.4,29.32,SW,225,0.0,0.0,76,0.00,,SCT,0.00,WeatherDisplay:10.37,2013-01-07 14:52:00,
2013-01-07 09:57:00,40.1,32.8,29.32,SW,225,0.0,0.0,75,0.00,,SCT,0.00,WeatherDisplay:10.37,2013-01-07 14:57:00,
2013-01-07 10:02:00,41.0,32.3,29.35,SW,225,0.0,0.0,71,0.00,,SCT,0.00,WeatherDisplay:10.37,2013-01-07 15:02:00,
2013-01-07 10:07:00,42.1,32.3,29.35,WSW,248,1.1,0.0,68,0.00,,SCT,0.00,WeatherDisplay:10.37,2013-01-07 15:07:00,
2013-01-07 10:12:00,43.2,32.2,29.35,SSE,158,1.1,1.1,65,0.00,,SCT,0.00,WeatherDisplay:10.37,2013-01-07 15:12:00,
2013-01-07 10:17:00,44.6,32.4,29.35,NW,315,1.4,0.0,62,0.00,,SCT,0.00,WeatherDisplay:10.37,2013-01-07 15:17:00,
2013-01-07 10:22:00,45.7,31.3,29.35,SE,135,2.3,2.3,57,0.00,,SCT,0.00,WeatherDisplay:10.37,2013-01-07 15:22:00,
2013-01-07 10:27:00,46.6,25.3,29.35,SE,135,2.4,2.4,43,0.00,,SCT,0.00,WeatherDisplay:10.37,2013-01-07 15:27:00,
2013-01-07 10:32:00,47.3,25.9,29.35,NNE,22,1.6,0.0,43,0.00,,SCT,0.00,WeatherDisplay:10.37,2013-01-07 15:32:00,
2013-01-07 10:37:00,48.0,23.6,29.35,North,0,5.8,5.8,38,0.00,,SCT,0.00,WeatherDisplay:10.37,2013-01-07 15:37:00,
2013-01-07 10:42:00,48.6,24.1,29.35,NNE,22,3.5,3.5,38,0.00,,SCT,0.00,WeatherDisplay:10.37,2013-01-07 15:42:00,
2013-01-07 10:47:00,49.1,23.9,29.35,East,90,2.3,2.3,37,0.00,,SCT,0.00,WeatherDisplay:10.37,2013-01-07 15:47:00,
2013-01-07 10:52:00,49.6,21.7,29.35,NNE,22,3.5,3.5,33,0.00,,SCT,0.00,WeatherDisplay:10.37,2013-01-07 15:52:00,
2013-01-07 10:57:00,49.8,21.8,29.35,NNW,338,3.3,3.3,33,0.00,,SCT,0.00,WeatherDisplay:10.37,2013-01-07 15:57:00,
2013-01-07 11:02:00,50.2,19.9,29.35,North,0,2.6,2.6,30,0.00,,SCT,0.00,WeatherDisplay:10.37,2013-01-07 16:02:00,
2013-01-07 11:07:00,50.9,22.1,29.35,ESE,112,2.4,2.4,32,0.00,,SCT,0.00,WeatherDisplay:10.37,2013-01-07 16:07:00,
2013-01-07 11:12:00,51.4,21.8,29.35,NE,45,2.3,2.3,31,0.00,,SCT,0.00,WeatherDisplay:10.37,2013-01-07 16:12:00,
2013-01-07 11:17:00,52.2,22.4,29.35,NW,315,2.3,2.3,31,0.00,,SCT,0.00,WeatherDisplay:10.37,2013-01-07 16:17:00,
2013-01-07 11:22:00,53.1,22.4,29.35,East,90,2.3,2.3,30,0.00,,SCT,0.00,WeatherDisplay:10.37,2013-01-07 16:22:00,
2013-01-07 11:27:00,52.9,21.4,29.35,ESE,112,2.3,2.3,29,0.00,,SCT,0.00,WeatherDisplay:10.37,2013-01-07 16:27:00,
2013-01-07 11:32:00,52.9,20.6,29.32,NE,45,3.5,3.5,28,0.00,,SCT,0.00,WeatherDisplay:10.37,2013-01-07 16:32:00,
2013-01-07 11:37:00,51.8,18.8,29.32,North,0,3.5,3.5,27,0.00,,SCT,0.00,WeatherDisplay:10.37,2013-01-07 16:37:00,
2013-01-07 11:42:00,52.2,20.0,29.32,NE,45,1.1,0.0,28,0.00,,SCT,0.00,WeatherDisplay:10.37,2013-01-07 16:42:00,
2013-01-07 11:47:00,52.3,20.2,29.32,NE,45,2.3,2.3,28,0.00,,SCT,0.00,WeatherDisplay:10.37,2013-01-07 16:47:00,
2013-01-07 11:52:00,52.9,20.6,29.32,East,90,2.3,0.0,28,0.00,,SCT,0.00,WeatherDisplay:10.37,2013-01-07 16:52:00,
2013-01-07 11:57:00,52.9,19.8,29.32,NNE,22,2.6,2.6,27,0.00,,SCT,0.00,WeatherDisplay:10.37,2013-01-07 16:57:00,
2013-01-07 12:02:00,52.3,19.3,29.32,North,0,1.4,1.4,27,0.00,,SCT,0.00,WeatherDisplay:10.37,2013-01-07 17:02:00,
2013-01-07 12:07:00,51.8,18.8,29.32,North,0,4.6,4.6,27,0.00,,SCT,0.00,WeatherDisplay:10.37,2013-01-07 17:07:00,
2013-01-07 12:12:00,52.2,19.1,29.32,ENE,68,3.5,3.5,27,0.00,,SCT,0.00,WeatherDisplay:10.37,2013-01-07 17:12:00,
2013-01-07 12:17:00,52.3,19.3,29.29,North,0,3.5,3.5,27,0.00,,SCT,0.00,WeatherDisplay:10.37,2013-01-07 17:17:00,
2013-01-07 12:22:00,52.7,19.6,29.29,NNW,338,2.3,2.3,27,0.00,,SCT,0.00,WeatherDisplay:10.37,2013-01-07 17:22:00,
2013-01-07 12:27:00,53.6,19.5,29.29,North,0,2.6,2.6,26,0.00,,SCT,0.00,WeatherDisplay:10.37,2013-01-07 17:27:00,
2013-01-07 12:32:00,54.3,20.1,29.32,North,0,5.6,5.6,26,0.00,,SCT,0.00,WeatherDisplay:10.37,2013-01-07 17:32:00,
2013-01-07 12:37:00,54.3,20.1,29.32,SE,135,1.1,1.1,26,0.00,,SCT,0.00,WeatherDisplay:10.37,2013-01-07 17:37:00,
2013-01-07 12:42:00,55.4,21.0,29.32,North,0,2.3,2.3,26,0.00,,SCT,0.00,WeatherDisplay:10.37,2013-01-07 17:42:00,
2013-01-07 12:47:00,55.9,20.6,29.32,NE,45,4.6,4.6,25,0.00,,SCT,0.00,WeatherDisplay:10.37,2013-01-07 17:47:00,
2013-01-07 12:52:00,55.8,20.4,29.32,NNW,338,4.0,4.0,25,0.00,,SCT,0.00,WeatherDisplay:10.37,2013-01-07 17:52:00,
2013-01-07 12:57:00,55.8,20.4,29.32,SW,225,4.6,0.0,25,0.00,,SCT,0.00,WeatherDisplay:10.37,2013-01-07 17:57:00,
2013-01-07 13:02:00,56.3,20.9,29.29,ENE,68,3.6,3.6,25,0.00,,SCT,0.00,WeatherDisplay:10.37,2013-01-07 18:02:00,
2013-01-07 13:07:00,56.3,20.9,29.29,ESE,112,2.3,2.3,25,0.00,,SCT,0.00,WeatherDisplay:10.37,2013-01-07 18:07:00,
2013-01-07 13:12:00,56.7,21.2,29.29,NE,45,2.3,2.3,25,0.00,,SCT,0.00,WeatherDisplay:10.37,2013-01-07 18:12:00,
2013-01-07 13:17:00,55.9,20.6,29.29,East,90,3.5,3.6,25,0.00,,SCT,0.00,WeatherDisplay:10.37,2013-01-07 18:17:00,
2013-01-07 13:22:00,56.5,21.0,29.29,ESE,112,3.1,3.1,25,0.00,,SCT,0.00,WeatherDisplay:10.37,2013-01-07 18:22:00,
2013-01-07 13:27:00,56.3,20.9,29.29,NE,45,4.6,4.6,25,0.00,,SCT,0.00,WeatherDisplay:10.37,2013-01-07 18:27:00,
2013-01-07 13:32:00,55.6,20.3,29.26,NNE,22,4.6,4.6,25,0.00,,SCT,0.00,WeatherDisplay:10.37,2013-01-07 18:32:00,
2013-01-07 13:37:00,55.0,19.8,29.26,NNE,22,4.6,4.6,25,0.00,,SCT,0.00,WeatherDisplay:10.37,2013-01-07 18:37:00,
2013-01-07 13:42:00,54.5,19.3,29.26,NNW,338,3.5,3.5,25,0.00,,SCT,0.00,WeatherDisplay:10.37,2013-01-07 18:42:00,
2013-01-07 13:47:00,54.1,19.0,29.26,East,90,2.3,2.3,25,0.00,,SCT,0.00,WeatherDisplay:10.37,2013-01-07 18:47:00,
2013-01-07 13:52:00,54.5,19.3,29.26,East,90,1.1,1.1,25,0.00,,SCT,0.00,WeatherDisplay:10.37,2013-01-07 18:52:00,
2013-01-07 13:57:00,54.7,19.5,29.26,East,90,4.3,4.3,25,0.00,,SCT,0.00,WeatherDisplay:10.37,2013-01-07 18:57:00,
2013-01-07 14:02:00,54.7,19.5,29.26,SE,135,0.0,0.0,25,0.00,,SCT,0.00,WeatherDisplay:10.37,2013-01-07 19:02:00,
2013-01-07 14:07:00,54.5,19.3,29.26,NE,45,2.3,2.3,25,0.00,,SCT,0.00,WeatherDisplay:10.37,2013-01-07 19:07:00,
2013-01-07 14:12:00,54.5,19.3,29.26,NNE,22,1.6,1.6,25,0.00,,SCT,0.00,WeatherDisplay:10.37,2013-01-07 19:12:00,
2013-01-07 14:17:00,54.1,19.0,29.26,NNE,22,3.5,3.5,25,0.00,,SCT,0.00,WeatherDisplay:10.37,2013-01-07 19:17:00,
2013-01-07 14:22:00,54.1,19.0,29.26,ENE,68,2.3,2.3,25,0.00,,SCT,0.00,WeatherDisplay:10.37,2013-01-07 19:22:00,
2013-01-07 14:27:00,54.1,19.0,29.26,NNW,338,3.5,3.5,25,0.00,,SCT,0.00,WeatherDisplay:10.37,2013-01-07 19:27:00,
2013-01-07 14:32:00,54.5,19.3,29.26,NE,45,2.3,2.3,25,0.00,,SCT,0.00,WeatherDisplay:10.37,2013-01-07 19:32:00,
2013-01-07 14:37:00,55.0,19.8,29.26,NNE,22,1.1,1.4,25,0.00,,SCT,0.00,WeatherDisplay:10.37,2013-01-07 19:37:00,
2013-01-07 14:42:00,54.9,19.7,29.26,NE,45,1.1,0.0,25,0.00,,SCT,0.00,WeatherDisplay:10.37,2013-01-07 19:42:00,
2013-01-07 14:47:00,54.7,19.5,29.26,East,90,2.2,2.2,25,0.00,,SCT,0.00,WeatherDisplay:10.37,2013-01-07 19:47:00,
2013-01-07 14:52:00,54.7,19.5,29.26,NE,45,1.4,0.0,25,0.00,,SCT,0.00,WeatherDisplay:10.37,2013-01-07 19:52:00,
2013-01-07 14:57:00,54.7,19.5,29.26,ENE,68,2.3,2.3,25,0.00,,SCT,0.00,WeatherDisplay:10.37,2013-01-07 19:57:00,
2013-01-07 15:02:00,54.3,19.2,29.24,ESE,112,2.3,2.4,25,0.00,,SCT,0.00,WeatherDisplay:10.37,2013-01-07 20:02:00,
2013-01-07 15:07:00,53.8,18.7,29.24,East,90,1.1,0.0,25,0.00,,SCT,0.00,WeatherDisplay:10.37,2013-01-07 20:07:00,
2013-01-07 15:12:00,53.8,18.7,29.24,NE,45,3.5,3.5,25,0.00,,SCT,0.00,WeatherDisplay:10.37,2013-01-07 20:12:00,
2013-01-07 15:17:00,53.8,18.7,29.26,East,90,1.4,1.4,25,0.00,,SCT,0.00,WeatherDisplay:10.37,2013-01-07 20:17:00,
2013-01-07 15:19:00,53.8,18.7,29.26,East,90,2.3,0.0,25,0.00,,SCT,0.00,WeatherDisplay:10.37,2013-01-07 20:19:00,
2013-01-07 15:24:00,53.8,18.7,29.26,ENE,68,0.0,0.0,25,0.00,,SCT,0.00,WeatherDisplay:10.37,2013-01-07 20:24:00,
2013-01-07 15:29:00,54.0,18.9,29.26,ENE,68,2.3,2.3,25,0.00,,SCT,0.00,WeatherDisplay:10.37,2013-01-07 20:29:00,
2013-01-07 15:34:00,54.0,18.9,29.26,NNE,22,0.0,0.0,25,0.00,,SCT,0.00,WeatherDisplay:10.37,2013-01-07 20:34:00,
2013-01-07 15:39:00,53.8,18.7,29.26,East,90,2.3,2.3,25,0.00,,SCT,0.00,WeatherDisplay:10.37,2013-01-07 20:39:00,
2013-01-07 15:44:00,53.4,19.3,29.26,NW,315,2.3,2.3,26,0.00,,SCT,0.00,WeatherDisplay:10.37,2013-01-07 20:44:00,
2013-01-07 15:49:00,53.2,19.2,29.26,ENE,68,2.3,2.3,26,0.00,,SCT,0.00,WeatherDisplay:10.37,2013-01-07 20:49:00,
2013-01-07 15:54:00,53.2,19.2,29.26,ESE,112,1.1,1.1,26,0.00,,SCT,0.00,WeatherDisplay:10.37,2013-01-07 20:54:00,
2013-01-07 15:59:00,53.2,19.2,29.26,ENE,68,1.1,1.4,26,0.00,,SCT,0.00,WeatherDisplay:10.37,2013-01-07 20:59:00,
2013-01-07 16:04:00,53.2,19.2,29.26,East,90,2.3,2.3,26,0.00,,SCT,0.00,WeatherDisplay:10.37,2013-01-07 21:04:00,
2013-01-07 16:09:00,53.6,18.6,29.26,East,90,3.5,3.5,25,0.00,,SCT,0.00,WeatherDisplay:10.37,2013-01-07 21:09:00,
2013-01-07 16:14:00,53.6,18.6,29.26,SE,135,0.0,0.0,25,0.00,,SCT,0.00,WeatherDisplay:10.37,2013-01-07 21:14:00,
2013-01-07 16:19:00,53.2,19.2,29.26,East,90,0.0,0.0,26,0.00,,SCT,0.00,WeatherDisplay:10.37,2013-01-07 21:19:00,
2013-01-07 16:24:00,52.9,18.9,29.26,SE,135,2.3,2.3,26,0.00,,SCT,0.00,WeatherDisplay:10.37,2013-01-07 21:24:00,
2013-01-07 16:29:00,52.3,18.4,29.26,ENE,68,1.1,1.4,26,0.00,,SCT,0.00,WeatherDisplay:10.37,2013-01-07 21:29:00,
2013-01-07 16:34:00,52.0,18.1,29.29,NNE,22,1.4,0.0,26,0.00,,SCT,0.00,WeatherDisplay:10.37,2013-01-07 21:34:00,
2013-01-07 16:39:00,52.0,18.1,29.29,NE,45,1.1,0.0,26,0.00,,SCT,0.00,WeatherDisplay:10.37,2013-01-07 21:39:00,
2013-01-07 16:44:00,51.6,17.8,29.29,NNW,338,1.1,1.1,26,0.00,,SCT,0.00,WeatherDisplay:10.37,2013-01-07 21:44:00,
2013-01-07 16:49:00,51.3,17.5,29.29,NE,45,0.0,0.0,26,0.00,,SCT,0.00,WeatherDisplay:10.37,2013-01-07 21:49:00,
2013-01-07 16:54:00,50.7,17.0,29.29,NE,45,0.0,0.0,26,0.00,,SCT,0.00,WeatherDisplay:10.37,2013-01-07 21:54:00,
2013-01-07 16:59:00,50.5,16.9,29.29,East,90,1.4,0.0,26,0.00,,SCT,0.00,WeatherDisplay:10.37,2013-01-07 21:59:00,
2013-01-07 17:04:00,50.2,16.6,29.32,NNW,338,0.0,0.0,26,0.00,,SCT,0.00,WeatherDisplay:10.37,2013-01-07 22:04:00,
2013-01-07 17:09:00,50.0,16.4,29.32,ENE,68,0.0,0.0,26,0.00,,SCT,0.00,WeatherDisplay:10.37,2013-01-07 22:09:00,
2013-01-07 17:14:00,49.6,16.1,29.32,North,0,0.0,0.0,26,0.00,,SCT,0.00,WeatherDisplay:10.37,2013-01-07 22:14:00,
2013-01-07 17:19:00,49.5,15.9,29.29,North,0,2.3,2.3,26,0.00,,SCT,0.00,WeatherDisplay:10.37,2013-01-07 22:19:00,
2013-01-07 17:24:00,49.3,15.8,29.29,NNE,22,1.1,1.1,26,0.00,,SCT,0.00,WeatherDisplay:10.37,2013-01-07 22:24:00,
2013-01-07 17:29:00,48.9,15.5,29.29,ENE,68,0.0,0.0,26,0.00,,SCT,0.00,WeatherDisplay:10.37,2013-01-07 22:29:00,
2013-01-07 17:34:00,48.6,15.2,29.29,NNE,22,1.1,0.0,26,0.00,,SCT,0.00,WeatherDisplay:10.37,2013-01-07 22:34:00,
2013-01-07 17:39:00,48.2,14.9,29.29,NNE,22,0.0,0.0,26,0.00,,SCT,0.00,WeatherDisplay:10.37,2013-01-07 22:39:00,
2013-01-07 17:44:00,47.7,15.3,29.29,NNE,22,0.0,0.0,27,0.00,,SCT,0.00,WeatherDisplay:10.37,2013-01-07 22:44:00,
2013-01-07 17:49:00,47.3,15.0,29.29,NNE,22,0.0,0.0,27,0.00,,SCT,0.00,WeatherDisplay:10.37,2013-01-07 22:49:00,
2013-01-07 17:54:00,46.8,14.5,29.29,NNE,22,0.0,0.0,27,0.00,,SCT,0.00,WeatherDisplay:10.37,2013-01-07 22:54:00,
2013-01-07 17:59:00,46.4,14.2,29.29,NNE,22,0.0,0.0,27,0.00,,SCT,0.00,WeatherDisplay:10.37,2013-01-07 22:59:00,
2013-01-07 18:04:00,46.0,13.9,29.32,NNE,22,0.0,0.0,27,0.00,,SCT,0.00,WeatherDisplay:10.37,2013-01-07 23:04:00,
2013-01-07 18:09:00,45.5,14.2,29.32,NNE,22,0.0,0.0,28,0.00,,SCT,0.00,WeatherDisplay:10.37,2013-01-07 23:09:00,
2013-01-07 18:14:00,44.8,13.6,29.32,NNE,22,0.0,0.0,28,0.00,,SCT,0.00,WeatherDisplay:10.37,2013-01-07 23:14:00,
2013-01-07 18:19:00,44.4,13.3,29.32,NNE,22,0.0,0.0,28,0.00,,SCT,0.00,WeatherDisplay:10.37,2013-01-07 23:19:00,
2013-01-07 18:24:00,44.1,13.0,29.32,NNE,22,0.0,0.0,28,0.00,,SCT,0.00,WeatherDisplay:10.37,2013-01-07 23:24:00,
2013-01-07 18:29:00,43.5,12.5,29.32,NNE,22,0.0,0.0,28,0.00,,SCT,0.00,WeatherDisplay:10.37,2013-01-07 23:29:00,
2013-01-07 18:34:00,43.2,12.2,29.32,NNE,22,0.0,0.0,28,0.00,,SCT,0.00,WeatherDisplay:10.37,2013-01-07 23:34:00,
2013-01-07 18:39:00,42.8,11.9,29.32,NNE,22,0.0,0.0,28,0.00,,SCT,0.00,WeatherDisplay:10.37,2013-01-07 23:39:00,
2013-01-07 18:44:00,42.4,12.4,29.32,NNE,22,0.0,0.0,29,0.00,,SCT,0.00,WeatherDisplay:10.37,2013-01-07 23:44:00,
2013-01-07 18:49:00,42.3,12.2,29.32,NNE,22,0.0,0.0,29,0.00,,SCT,0.00,WeatherDisplay:10.37,2013-01-07 23:49:00,
2013-01-07 18:54:00,42.1,12.1,29.32,ENE,68,0.0,0.0,29,0.00,,SCT,0.00,WeatherDisplay:10.37,2013-01-07 23:54:00,
2013-01-07 18:59:00,41.9,11.9,29.32,ENE,68,0.0,0.0,29,0.00,,SCT,0.00,WeatherDisplay:10.37,2013-01-07 23:59:00,
2013-01-07 19:04:00,41.7,11.7,29.32,ENE,68,0.0,0.0,29,0.00,,SCT,0.00,WeatherDisplay:10.37,2013-01-08 00:04:00,
2013-01-07 19:09:00,41.5,11.6,29.32,ENE,68,0.0,0.0,29,0.00,,SCT,0.00,WeatherDisplay:10.37,2013-01-08 00:09:00,
2013-01-07 19:14:00,41.2,12.0,29.32,ENE,68,0.0,0.0,30,0.00,,SCT,0.00,WeatherDisplay:10.37,2013-01-08 00:14:00,
2013-01-07 19:19:00,40.8,11.7,29.32,ENE,68,0.0,0.0,30,0.00,,SCT,0.00,WeatherDisplay:10.37,2013-01-08 00:19:00,
2013-01-07 19:24:00,40.6,12.3,29.32,ENE,68,0.0,0.0,31,0.00,,SCT,0.00,WeatherDisplay:10.37,2013-01-08 00:24:00,
2013-01-07 19:29:00,40.5,12.2,29.32,ENE,68,0.0,0.0,31,0.00,,SCT,0.00,WeatherDisplay:10.37,2013-01-08 00:29:00,
2013-01-07 19:34:00,40.3,12.0,29.32,ENE,68,0.0,0.0,31,0.00,,SCT,0.00,WeatherDisplay:10.37,2013-01-08 00:34:00,
2013-01-07 19:39:00,39.9,12.4,29.32,ENE,68,0.0,0.0,32,0.00,,SCT,0.00,WeatherDisplay:10.37,2013-01-08 00:39:00,
2013-01-07 19:44:00,39.7,12.2,29.32,ENE,68,0.0,0.0,32,0.00,,SCT,0.00,WeatherDisplay:10.37,2013-01-08 00:44:00,
2013-01-07 19:49:00,39.4,12.6,29.32,ENE,68,0.0,0.0,33,0.00,,SCT,0.00,WeatherDisplay:10.37,2013-01-08 00:49:00,
2013-01-07 19:54:00,39.0,12.3,29.32,ENE,68,0.0,0.0,33,0.00,,SCT,0.00,WeatherDisplay:10.37,2013-01-08 00:54:00,
2013-01-07 19:59:00,38.8,12.8,29.32,ENE,68,0.0,0.0,34,0.00,,SCT,0.00,WeatherDisplay:10.37,2013-01-08 00:59:00,
2013-01-07 20:04:00,38.7,13.3,29.32,ENE,68,0.0,0.0,35,0.00,,SCT,0.00,WeatherDisplay:10.37,2013-01-08 01:04:00,
2013-01-07 20:09:00,38.3,13.6,29.32,ENE,68,0.0,0.0,36,0.00,,SCT,0.00,WeatherDisplay:10.37,2013-01-08 01:09:00,
2013-01-07 20:14:00,37.9,13.3,29.32,ENE,68,0.0,0.0,36,0.00,,SCT,0.00,WeatherDisplay:10.37,2013-01-08 01:14:00,
2013-01-07 20:19:00,37.6,13.6,29.32,ENE,68,0.0,0.0,37,0.00,,SCT,0.00,WeatherDisplay:10.37,2013-01-08 01:19:00,
2013-01-07 20:24:00,37.2,13.9,29.32,ENE,68,0.0,0.0,38,0.00,,SCT,0.00,WeatherDisplay:10.37,2013-01-08 01:24:00,
2013-01-07 20:29:00,37.0,14.3,29.32,ENE,68,0.0,0.0,39,0.00,,SCT,0.00,WeatherDisplay:10.37,2013-01-08 01:29:00,
2013-01-07 20:34:00,36.9,14.2,29.32,ENE,68,0.0,0.0,39,0.00,,SCT,0.00,WeatherDisplay:10.37,2013-01-08 01:34:00,
2013-01-07 20:39:00,36.5,14.4,29.32,ENE,68,0.0,0.0,40,0.00,,SCT,0.00,WeatherDisplay:10.37,2013-01-08 01:39:00,
2013-01-07 20:44:00,36.3,14.3,29.32,ENE,68,0.0,0.0,40,0.00,,SCT,0.00,WeatherDisplay:10.37,2013-01-08 01:44:00,
2013-01-07 20:49:00,36.1,14.1,29.32,ENE,68,0.0,0.0,40,0.00,,SCT,0.00,WeatherDisplay:10.37,2013-01-08 01:49:00,
2013-01-07 20:54:00,35.8,13.8,29.32,ENE,68,0.0,0.0,40,0.00,,SCT,0.00,WeatherDisplay:10.37,2013-01-08 01:54:00,
2013-01-07 20:59:00,35.6,14.2,29.32,ENE,68,0.0,0.0,41,0.00,,SCT,0.00,WeatherDisplay:10.37,2013-01-08 01:59:00,
2013-01-07 21:04:00,35.4,14.0,29.32,ENE,68,0.0,0.0,41,0.00,,SCT,0.00,WeatherDisplay:10.37,2013-01-08 02:04:00,
2013-01-07 21:09:00,35.1,14.2,29.32,ENE,68,0.0,0.0,42,0.00,,SCT,0.00,WeatherDisplay:10.37,2013-01-08 02:09:00,
2013-01-07 21:14:00,34.9,14.1,29.32,ENE,68,0.0,0.0,42,0.00,,SCT,0.00,WeatherDisplay:10.37,2013-01-08 02:14:00,
2013-01-07 21:19:00,34.7,13.9,29.32,ENE,68,0.0,0.0,42,0.00,,SCT,0.00,WeatherDisplay:10.37,2013-01-08 02:19:00,
2013-01-07 21:24:00,34.5,13.8,29.32,ENE,68,0.0,0.0,42,0.00,,SCT,0.00,WeatherDisplay:10.37,2013-01-08 02:24:00,
2013-01-07 21:29:00,34.5,14.3,29.32,ENE,68,0.0,0.0,43,0.00,,SCT,0.00,WeatherDisplay:10.37,2013-01-08 02:29:00,
2013-01-07 21:34:00,34.3,14.1,29.32,ENE,68,0.0,0.0,43,0.00,,SCT,0.00,WeatherDisplay:10.37,2013-01-08 02:34:00,
2013-01-07 21:39:00,34.0,14.3,29.32,ENE,68,0.0,0.0,44,0.00,,SCT,0.00,WeatherDisplay:10.37,2013-01-08 02:39:00,
2013-01-07 21:44:00,33.8,14.7,29.32,ENE,68,0.0,0.0,45,0.00,,SCT,0.00,WeatherDisplay:10.37,2013-01-08 02:44:00,
2013-01-07 21:49:00,33.6,14.5,29.29,ENE,68,0.0,0.0,45,0.00,,SCT,0.00,WeatherDisplay:10.37,2013-01-08 02:49:00,
2013-01-07 21:54:00,33.4,14.8,29.29,ENE,68,0.0,0.0,46,0.00,,SCT,0.00,WeatherDisplay:10.37,2013-01-08 02:54:00,
2013-01-07 21:59:00,33.3,14.2,29.29,ENE,68,0.0,0.0,45,0.00,,SCT,0.00,WeatherDisplay:10.37,2013-01-08 02:59:00,
2013-01-07 22:04:00,33.1,14.5,29.32,ENE,68,0.0,0.0,46,0.00,,SCT,0.00,WeatherDisplay:10.37,2013-01-08 03:04:00,
2013-01-07 22:09:00,32.9,14.8,29.32,ENE,68,0.0,0.0,47,0.00,,SCT,0.00,WeatherDisplay:10.37,2013-01-08 03:09:00,
2013-01-07 22:14:00,32.7,15.2,29.32,ENE,68,0.0,0.0,48,0.00,,SCT,0.00,WeatherDisplay:10.37,2013-01-08 03:14:00,
2013-01-07 22:19:00,32.7,15.2,29.32,ENE,68,0.0,0.0,48,0.00,,SCT,0.00,WeatherDisplay:10.37,2013-01-08 03:19:00,
2013-01-07 22:24:00,32.5,15.0,29.32,ENE,68,0.0,0.0,48,0.00,,SCT,0.00,WeatherDisplay:10.37,2013-01-08 03:24:00,
2013-01-07 22:29:00,32.2,15.1,29.32,ENE,68,0.0,0.0,49,0.00,,SCT,0.00,WeatherDisplay:10.37,2013-01-08 03:29:00,
2013-01-07 22:34:00,32.0,15.0,29.32,ENE,68,0.0,0.0,49,0.00,,SCT,0.00,WeatherDisplay:10.37,2013-01-08 03:34:00,
2013-01-07 22:39:00,31.8,14.3,29.32,NNW,338,0.0,0.0,48,0.00,,SCT,0.00,WeatherDisplay:10.37,2013-01-08 03:39:00,
2013-01-07 22:44:00,31.8,14.3,29.32,NNW,338,0.0,0.0,48,0.00,,SCT,0.00,WeatherDisplay:10.37,2013-01-08 03:44:00,
2013-01-07 22:49:00,31.6,15.1,29.32,SSW,202,1.1,1.1,50,0.00,,SCT,0.00,WeatherDisplay:10.37,2013-01-08 03:49:00,
2013-01-07 22:54:00,31.8,16.2,29.32,South,180,0.0,0.0,52,0.00,,SCT,0.00,WeatherDisplay:10.37,2013-01-08 03:54:00,
2013-01-07 22:59:00,31.8,16.2,29.32,South,180,0.0,0.0,52,0.00,,SCT,0.00,WeatherDisplay:10.37,2013-01-08 03:59:00,
2013-01-07 23:04:00,31.5,15.4,29.32,West,270,0.0,0.0,51,0.00,,SCT,0.00,WeatherDisplay:10.37,2013-01-08 04:04:00,
2013-01-07 23:09:00,31.1,15.5,29.32,West,270,0.0,0.0,52,0.00,,SCT,0.00,WeatherDisplay:10.37,2013-01-08 04:09:00,
2013-01-07 23:14:00,31.1,15.5,29.32,West,270,0.0,0.0,52,0.00,,SCT,0.00,WeatherDisplay:10.37,2013-01-08 04:14:00,
2013-01-07 23:19:00,31.1,15.5,29.32,West,270,0.0,0.0,52,0.00,,SCT,0.00,WeatherDisplay:10.37,2013-01-08 04:19:00,
2013-01-07 23:24:00,30.9,15.3,29.32,West,270,0.0,0.0,52,0.00,,SCT,0.00,WeatherDisplay:10.37,2013-01-08 04:24:00,
2013-01-07 23:29:00,30.6,15.0,29.32,West,270,0.0,0.0,52,0.00,,SCT,0.00,WeatherDisplay:10.37,2013-01-08 04:29:00,
2013-01-07 23:34:00,30.4,15.3,29.32,West,270,0.0,0.0,53,0.00,,SCT,0.00,WeatherDisplay:10.37,2013-01-08 04:34:00,
2013-01-07 23:39:00,30.4,15.3,29.32,West,270,0.0,0.0,53,0.00,,SCT,0.00,WeatherDisplay:10.37,2013-01-08 04:39:00,
2013-01-07 23:44:00,30.2,15.5,29.32,West,270,0.0,0.0,54,0.00,,SCT,0.00,WeatherDisplay:10.37,2013-01-08 04:44:00,
2013-01-07 23:49:00,30.2,15.5,29.32,West,270,0.0,0.0,54,0.00,,SCT,0.00,WeatherDisplay:10.37,2013-01-08 04:49:00,
2013-01-07 23:54:00,30.0,15.4,29.32,West,270,0.0,0.0,54,0.00,,SCT,0.00,WeatherDisplay:10.37,2013-01-08 04:54:00,
2013-01-07 23:59:00,29.8,15.2,29.32,West,270,0.0,0.0,54,0.00,,SCT,0.00,WeatherDisplay:10.37,2013-01-08 04:59:00,